Weather reports worldwide

Advertisment
Bergamo/Orio al Serio, Italy (16076): temperature & dewpoint: 20.10.2020 22:00:00 - 26.10.2020 22:00:00 (CET)Bergamo/Orio al Serio, Italy (16076): wind speed: 20.10.2020 22:00:00 - 26.10.2020 22:00:00 (CET)Bergamo/Orio al Serio, Italy (16076): wind direction: 20.10.2020 22:00:00 - 26.10.2020 22:00:00 (CET)Bergamo/Orio al Serio, Italy (16076): reduced air pressure: 20.10.2020 22:00:00 - 26.10.2020 22:00:00 (CET)Bergamo/Orio al Serio, Italy (16076): visibility: 20.10.2020 22:00:00 - 26.10.2020 22:00:00 (CET)Bergamo/Orio al Serio, Italy (16076): precipitation: 20.10.2020 22:00:00 - 26.10.2020 22:00:00 (CET)
Date & Time tt [°C] td [°C] ff [km/h] ff [kn] dd ppp [hPa] vv [km] rr [mm]
26.10.2020 22:00:00 12,7 12,6 5 3 E 1004,7 5 0,0
26.10.2020 21:00:00 13,0 12,0 4 2 - - 10 -
26.10.2020 20:00:00 14,0 13,0 15 8 E - 10 -
26.10.2020 19:00:00 13,5 13,2 16 9 SE 1004,8 7 -
26.10.2020 18:00:00 14,0 13,0 28 15 ESE - 6 -
26.10.2020 17:00:00 14,0 13,0 26 14 ESE - 8 -
26.10.2020 16:00:00 14,2 13,0 24 13 E 1003,9 8 0,0
26.10.2020 15:00:00 14,0 13,0 15 8 E - 8 -
26.10.2020 14:00:00 13,0 13,0 11 6 ENE - 5 -
26.10.2020 13:00:00 13,1 12,6 9 5 NNE 1005,9 4,0 -
26.10.2020 12:00:00 13,0 12,0 8 4 ENE - 4,0 -
26.10.2020 11:00:00 14,0 11,0 16 9 E - 8 -
26.10.2020 10:00:00 14,4 11,3 11 6 ENE 1005,6 4,5 0,0
26.10.2020 09:00:00 13,0 12,0 15 8 ENE - 10 -
26.10.2020 08:00:00 14,0 11,0 21 11 ESE - 5 -
26.10.2020 07:00:00 13,3 11,8 11 6 NNE 1007,7 10 -
26.10.2020 06:00:00 13,0 12,0 9 5 E - 5 -
26.10.2020 05:00:00 13,0 12,0 9 5 ENE - 10 -
26.10.2020 04:00:00 12,5 12,4 9 5 N 1010,0 6 0,0
26.10.2020 03:00:00 13,0 12,0 8 4 NE - 6 -
26.10.2020 02:00:00 13,0 12,0 9 5 ESE - 10 -
26.10.2020 01:00:00 12,6 12,4 4 2 - 1011,6 10 -
26.10.2020 00:00:00 13,0 13,0 9 5 NNE - 9 -
25.10.2020 23:00:00 13,0 13,0 8 4 NE - 10 -
25.10.2020 22:00:00 13,1 12,9 5 3 NE 1013,6 6 0,0
25.10.2020 21:00:00 14,0 12,0 2 1 - - 10 -
25.10.2020 20:00:00 14,0 12,0 2 1 - - 10 -
25.10.2020 19:00:00 13,9 13,2 2 1 - 1013,6 10 -
25.10.2020 18:00:00 15,0 13,0 2 1 - - 6 -
25.10.2020 17:00:00 16,0 12,0 9 5 SW - 10 -
25.10.2020 16:00:00 16,8 11,7 11 6 SW 1013,6 10 0,0
25.10.2020 15:00:00 17,0 13,0 11 6 SW - 10 -
25.10.2020 14:00:00 18,0 11,0 11 6 WSW - 10 -
25.10.2020 13:00:00 17,7 11,1 8 4 SW 1015,2 10 -
25.10.2020 12:00:00 16,0 11,0 4 2 - - 10 -
25.10.2020 11:00:00 15,0 11,0 4 2 - - 10 -
25.10.2020 10:00:00 13,9 11,5 5 3 NW 1016,9 10 0,0
25.10.2020 09:00:00 12,0 11,0 4 2 - - 10 -
25.10.2020 08:00:00 10,0 10,0 5 3 NNE - 10 -
25.10.2020 07:00:00 8,9 8,9 5 3 N 1016,5 8 -
25.10.2020 06:00:00 9,0 9,0 4 2 - - 7 -
25.10.2020 05:00:00 9,0 9,0 8 4 NNE - 5 -
25.10.2020 04:00:00 8,0 8,0 5 3 N 1016,1 5 0,0
25.10.2020 03:00:00 9,0 9,0 8 4 NNE - 5 -
25.10.2020 02:00:00 9,0 9,0 4 2 - - 3,0 -
25.10.2020 01:00:00 - - - - - - - -
25.10.2020 00:00:00 9,0 9,0 2 1 - - 2,0 -
24.10.2020 23:00:00 10,0 10,0 2 1 - - 1,5 -
24.10.2020 22:00:00 11,6 11,6 5 3 NNW 1017,1 2,0 0,0
24.10.2020 21:00:00 12,0 12,0 8 4 W - 2,5 -
24.10.2020 20:00:00 13,0 13,0 8 4 E - 2,0 -
24.10.2020 19:00:00 12,8 12,4 4 2 - 1016,2 3,5 -
24.10.2020 18:00:00 14,0 13,0 4 2 - - 3,0 -
24.10.2020 17:00:00 14,0 13,0 5 3 S - 3,5 -
24.10.2020 16:00:00 14,3 12,8 8 4 SSW 1015,6 4,0 0,0
24.10.2020 15:00:00 15,0 13,0 9 5 SW - 5 -
24.10.2020 14:00:00 15,0 13,0 8 4 SW - 5 -
24.10.2020 13:00:00 14,5 12,7 5 3 WSW 1016,1 6 -
24.10.2020 12:00:00 14,0 13,0 4 2 - - 4,0 -
24.10.2020 11:00:00 13,0 13,0 2 1 - - 3,5 -
24.10.2020 10:00:00 13,0 12,7 4 2 - 1017,5 2,0 0,0
24.10.2020 09:00:00 12,0 12,0 2 1 - - 0,9 -
24.10.2020 08:00:00 12,0 12,0 4 2 - - 0,5 -
24.10.2020 07:00:00 12,4 12,4 4 2 - 1016,9 0,8 -
24.10.2020 06:00:00 12,0 12,0 2 1 - - 0,6 -
24.10.2020 05:00:00 13,0 13,0 2 1 - - 0,4 -
24.10.2020 04:00:00 12,7 12,7 4 2 WNW 1017,0 0,4 0,0
24.10.2020 03:00:00 13,0 13,0 2 1 - - 0,4 -
24.10.2020 02:00:00 13,0 13,0 8 4 ESE - 0,4 -
24.10.2020 01:00:00 12,6 12,6 2 1 N 1018,0 0,5 -
24.10.2020 00:00:00 13,0 13,0 5 3 WSW - 0,7 -
23.10.2020 23:00:00 13,0 13,0 8 4 SW - 1,0 -
23.10.2020 22:00:00 12,7 12,7 2 1 - 1018,5 1,0 0,0
23.10.2020 21:00:00 13,0 13,0 4 2 - - 0,6 -
23.10.2020 20:00:00 13,0 13,0 5 3 S - 0,6 -
23.10.2020 19:00:00 12,9 12,9 4 2 - 1018,7 0,5 -
23.10.2020 18:00:00 13,0 13,0 5 3 SSW - 0,4 -
23.10.2020 17:00:00 13,0 13,0 5 3 S - 0,5 -
23.10.2020 16:00:00 13,2 13,2 4 2 S 1019,1 0,7 0,0
23.10.2020 15:00:00 13,0 13,0 4 2 - - 1,0 -
23.10.2020 14:00:00 13,0 13,0 2 1 - - 1,0 -
23.10.2020 13:00:00 13,0 13,0 4 2 - 1020,5 0,8 -
23.10.2020 12:00:00 13,0 13,0 2 1 - - 1,5 -
23.10.2020 11:00:00 13,0 13,0 8 4 E - 0,9 -
23.10.2020 10:00:00 12,5 12,5 9 5 ESE 1021,3 0,7 0,0
23.10.2020 09:00:00 12,0 12,0 9 5 SE - 0,7 -
23.10.2020 08:00:00 12,0 12,0 8 4 ESE - 0,8 -
23.10.2020 07:00:00 12,4 12,4 5 3 SE 1021,3 2,5 -
23.10.2020 06:00:00 13,0 13,0 5 3 SE - 4,0 -
23.10.2020 05:00:00 13,0 13,0 4 2 - - 4,0 -
23.10.2020 04:00:00 12,5 12,5 2 1 - 1021,8 5 0,0
23.10.2020 03:00:00 13,0 13,0 4 2 - - 4,0 -
23.10.2020 02:00:00 12,0 12,0 8 4 ESE - 7 -
23.10.2020 01:00:00 12,4 12,4 2 1 - 1023,2 7 -
23.10.2020 00:00:00 13,0 13,0 2 1 - - 6 -
22.10.2020 23:00:00 13,0 13,0 4 2 N - 3,5 -
22.10.2020 22:00:00 13,2 13,2 2 1 E 1024,0 7 0,0
22.10.2020 21:00:00 14,0 13,0 4 2 SE - 10 -
22.10.2020 20:00:00 14,0 13,0 4 2 - - 6 -
22.10.2020 19:00:00 13,8 12,7 2 1 - 1023,8 6 -
22.10.2020 18:00:00 14,0 13,0 5 3 SW - 6 -
22.10.2020 17:00:00 15,0 12,0 8 4 SW - 6 -
22.10.2020 16:00:00 14,6 12,2 9 5 SW 1023,5 7 0,0
22.10.2020 15:00:00 15,0 11,0 4 2 - - 8 -
22.10.2020 14:00:00 15,0 10,0 8 4 SW - 9 -
22.10.2020 13:00:00 14,7 9,7 4 2 - 1023,9 10 -
22.10.2020 12:00:00 14,0 10,0 2 1 - - 10 -
22.10.2020 11:00:00 13,0 10,0 4 2 - - 10 -
22.10.2020 10:00:00 13,0 9,6 4 2 - 1024,8 10 0,0
22.10.2020 09:00:00 12,0 10,0 4 2 NNE - 10 -
22.10.2020 08:00:00 11,0 9,0 4 2 - - 10 -
22.10.2020 07:00:00 9,8 8,9 4 2 - 1023,4 10 -
22.10.2020 06:00:00 9,0 8,0 5 3 N - 10 -
22.10.2020 05:00:00 9,0 8,0 5 3 N - 10 -
22.10.2020 04:00:00 9,1 8,7 2 1 - 1023,7 10 0,0
22.10.2020 03:00:00 9,0 9,0 4 2 NNE - 10 -
22.10.2020 02:00:00 10,0 10,0 5 3 N - 10 -
22.10.2020 01:00:00 9,9 9,5 2 1 - 1024,0 10 -
22.10.2020 00:00:00 12,0 10,0 2 1 - - 10 -
21.10.2020 23:00:00 12,0 10,0 5 3 N - 10 -
21.10.2020 22:00:00 11,9 10,7 2 1 NNE 1024,3 10 0,0
21.10.2020 21:00:00 13,0 11,0 2 1 - - 9 -
21.10.2020 20:00:00 13,0 11,0 2 1 - - 10 -
21.10.2020 19:00:00 13,3 10,8 4 2 - 1024,0 10 -
21.10.2020 18:00:00 14,0 10,0 2 1 - - 10 -
21.10.2020 17:00:00 16,0 9,0 9 5 WSW - 10 -
21.10.2020 16:00:00 15,7 9,4 9 5 WSW 1023,4 10 0,0
21.10.2020 15:00:00 16,0 10,0 11 6 W - 10 -
21.10.2020 14:00:00 16,0 10,0 9 5 W - 10 -
21.10.2020 13:00:00 15,2 8,5 8 4 W 1024,4 10 -
21.10.2020 12:00:00 15,0 9,0 9 5 SW - 9 -
21.10.2020 11:00:00 15,0 8,0 5 3 SSW - 10 -
21.10.2020 10:00:00 14,3 8,9 4 2 - 1024,7 10 0,0
21.10.2020 09:00:00 11,0 9,0 2 1 - - 10 -
21.10.2020 08:00:00 9,0 8,0 5 3 NNE - 10 -
21.10.2020 07:00:00 8,6 8,0 2 1 - 1023,5 10 -
21.10.2020 06:00:00 9,0 8,0 8 4 NNE - 10 -
21.10.2020 05:00:00 9,0 9,0 4 2 N - 10 -
21.10.2020 04:00:00 10,4 8,6 8 4 N 1023,3 10 0,0
21.10.2020 03:00:00 11,0 9,0 4 2 - - 10 -
21.10.2020 02:00:00 11,0 10,0 2 1 NNW - 7 -
21.10.2020 01:00:00 11,3 9,2 5 3 NNE 1024,1 7 -
21.10.2020 00:00:00 12,0 9,0 5 3 N - 6 -
20.10.2020 23:00:00 12,0 9,0 4 2 - - 5 -
20.10.2020 22:00:00 11,8 9,5 4 2 - 1024,7 5 0,0

tt = temperature
td = dewpoint
ff = wind speed
dd = wind direction
ppp = reduced air pressure
vv = visibility
rr = precipitation

Next stations